Date String (YYYY-MM-DD hh:mm:ss) UTC,Instrument flags,absolute air pressure of the measurement (hPa),sample flow rate (lpm),inlet stack bypass flow (lpm),air temperature of the measurement (°C),ambient temperature measured by the external sensor (°C),aerosol sample conditioner tube jacket temperature (°C),OPC LED temperature (°C),internal box temperature (°C),relative humidity of the measurement (%),span deviation,mass concentration of particles derived from Lorenz-Mie calculation of OPC scattering (μg/m³),mass concentration of particles derived from Lorenz-Mie calculation of OPC scattering (μg/m³),mass concentration of particles derived from Lorenz-Mie calculation of OPC scattering (μg/m³)
DateTimeUTC,F1_M11,P_M11,Q1_M11,Q2_M11,T1_M11,T2_M11,T3_M11,T4_M11,T5_M11,U1_M11,ZSPAN_M11,X0_M11,X2_M11,X1_M11
2023-11-05 04:00:00,SystemResetWarning,0831.6,5.01,000.00,028.3,027.2,000.0,036.7,029.7,12.8,0000.0,0007.70,0002.49,0001.46
2023-11-05 04:01:00,SystemResetWarning,0831.6,5.00,000.00,028.3,027.2,000.0,036.7,029.7,12.8,0000.0,0007.45,0002.41,0001.46
2023-11-05 04:02:00,SystemResetWarning,0831.6,4.99,000.00,028.3,027.3,000.0,036.7,029.7,12.9,0000.0,0008.07,0002.39,0001.47
2023-11-05 04:03:00,SystemResetWarning,0831.6,5.00,000.00,028.3,027.3,000.0,036.7,029.7,12.9,0000.0,0008.81,0002.33,0001.46
2023-11-05 04:04:00,SystemResetWarning,0831.6,4.99,000.00,028.3,027.3,000.0,036.7,029.7,12.9,0000.0,0008.82,0002.28,0001.45
2023-11-05 04:05:00,SystemResetWarning,0831.7,5.00,000.00,028.3,027.3,000.0,036.7,029.7,12.9,0000.0,0009.06,0002.25,0001.44
2023-11-05 04:06:00,SystemResetWarning,0831.7,5.00,000.00,028.3,027.3,000.0,036.7,029.7,12.8,0000.0,0009.26,0002.29,0001.45
2023-11-05 04:07:00,SystemResetWarning,0831.6,5.00,000.00,028.3,027.3,000.0,036.7,029.7,12.8,0000.0,0009.84,0002.30,0001.47
2023-11-05 04:08:00,SystemResetWarning,0831.6,5.01,000.00,028.3,027.3,000.0,036.7,029.6,12.8,0000.0,0009.84,0002.29,0001.46
2023-11-05 04:09:00,SystemResetWarning,0831.6,5.01,000.00,028.3,027.3,000.0,036.7,029.7,12.9,0000.0,0009.22,0002.24,0001.46
2023-11-05 04:10:00,SystemResetWarning,0831.6,4.99,000.00,028.3,027.3,000.0,036.7,029.7,13.0,0000.0,0009.37,0002.18,0001.45
2023-11-05 04:11:00,SystemResetWarning,0832.2,4.98,000.00,028.3,027.3,000.0,036.7,029.7,13.0,0000.0,0009.35,0002.11,0001.45
2023-11-05 04:12:00,SystemResetWarning,0832.2,5.01,000.00,028.3,027.3,000.0,036.7,029.6,12.4,0000.0,0009.39,0002.08,0001.45
2023-11-05 04:13:00,SystemResetWarning,0832.1,5.01,000.00,028.3,027.2,000.0,036.7,029.6,12.1,0000.0,0008.68,0002.06,0001.44
2023-11-05 04:14:00,SystemResetWarning,0831.7,5.00,000.00,028.3,027.3,000.0,036.7,029.7,12.3,0000.0,0007.88,0002.13,0001.45
2023-11-05 04:15:00,SystemResetWarning,0831.6,5.00,000.00,028.3,027.3,000.0,036.7,029.7,12.4,0000.0,0007.85,0002.18,0001.46
2023-11-05 04:16:00,SystemResetWarning,0831.6,4.99,000.00,028.3,027.3,000.0,036.7,029.7,12.3,0000.0,0008.19,0002.16,0001.47
2023-11-05 04:17:00,SystemResetWarning,0831.6,5.00,000.00,028.3,027.3,000.0,036.7,029.7,12.4,0000.0,0008.66,0002.16,0001.48
2023-11-05 04:18:00,SystemResetWarning,0831.6,5.00,000.00,028.3,027.3,000.0,036.7,029.7,12.6,0000.0,0008.31,0002.14,0001.46
2023-11-05 04:19:00,SystemResetWarning,0831.6,5.00,000.00,028.3,027.3,000.0,036.7,029.7,12.3,0000.0,0008.18,0002.13,0001.46
2023-11-05 04:20:00,SystemResetWarning,0831.6,5.00,000.00,028.3,027.3,000.0,036.7,029.7,12.2,0000.0,0008.31,0002.14,0001.47
2023-11-05 04:21:00,SystemResetWarning,0831.6,5.00,000.00,028.3,027.3,000.0,036.7,029.7,12.3,0000.0,0008.33,0002.22,0001.48
2023-11-05 04:22:00,SystemResetWarning,0831.5,5.00,000.00,028.3,027.3,000.0,036.7,029.7,12.6,0000.0,0008.14,0002.23,0001.49
2023-11-05 04:23:00,SystemResetWarning,0831.5,5.01,000.00,028.3,027.3,000.0,036.7,029.7,12.8,0000.0,0008.67,0002.28,0001.49
2023-11-05 04:24:00,SystemResetWarning,0831.5,5.01,000.00,028.3,027.3,000.0,036.7,029.7,12.7,0000.0,0009.13,0002.35,0001.49
2023-11-05 04:25:00,SystemResetWarning,0831.6,5.00,000.00,028.3,027.3,000.0,036.7,029.7,12.7,0000.0,0009.34,0002.33,0001.49
2023-11-05 04:26:00,SystemResetWarning,0831.6,4.99,000.00,028.3,027.3,000.0,036.7,029.7,12.7,0000.0,0009.45,0002.32,0001.48
2023-11-05 04:27:00,SystemResetWarning,0831.6,4.99,000.00,028.3,027.3,000.0,036.7,029.7,12.8,0000.0,0008.90,0002.27,0001.46
2023-11-05 04:28:00,SystemResetWarning,0831.5,4.99,000.00,028.3,027.3,000.0,036.7,029.7,12.7,0000.0,0008.10,0002.23,0001.45
2023-11-05 04:29:00,SystemResetWarning,0831.6,4.99,000.00,028.3,027.3,000.0,036.7,029.7,12.7,0000.0,0007.97,0002.23,0001.46
2023-11-05 04:30:00,SystemResetWarning,0831.5,5.01,000.00,028.3,027.3,000.0,036.7,029.8,12.7,0000.0,0007.72,0002.26,0001.46
2023-11-05 04:31:00,SystemResetWarning,0831.5,5.00,000.00,028.3,027.3,000.0,036.7,029.7,12.8,0000.0,0008.08,0002.28,0001.46
2023-11-05 04:32:00,SystemResetWarning,0831.5,5.00,000.00,028.3,027.3,000.0,036.7,029.8,12.7,0000.0,0008.18,0002.20,0001.44
2023-11-05 04:33:00,SystemResetWarning,0831.5,5.00,000.00,028.3,027.3,000.0,036.7,029.7,12.6,0000.0,0008.22,0002.19,0001.44
2023-11-05 04:34:00,SystemResetWarning,0831.5,5.00,000.00,028.3,027.3,000.0,036.7,029.7,12.6,0000.0,0007.65,0002.16,0001.44
2023-11-05 04:35:00,SystemResetWarning,0831.4,5.00,000.00,028.3,027.2,000.0,036.7,029.7,12.7,0000.0,0007.08,0002.11,0001.46
2023-11-05 04:36:00,SystemResetWarning,0831.4,5.00,000.00,028.3,027.2,000.0,036.7,029.7,12.8,0000.0,0007.13,0002.11,0001.46
2023-11-05 04:37:00,SystemResetWarning,0831.4,5.00,000.00,028.3,027.2,000.0,036.7,029.7,12.8,0000.0,0007.75,0002.12,0001.47
2023-11-05 04:38:00,SystemResetWarning,0831.4,4.99,000.00,028.3,027.2,000.0,036.7,029.7,12.8,0000.0,0007.74,0002.15,0001.48
2023-11-05 04:39:00,SystemResetWarning,0831.3,5.00,000.00,028.3,027.2,000.0,036.7,029.7,12.7,0000.0,0007.84,0002.17,0001.49
2023-11-05 04:40:00,SystemResetWarning,0831.3,5.01,000.00,028.3,027.2,000.0,036.7,029.7,12.7,0000.0,0007.84,0002.15,0001.49
2023-11-05 04:41:00,SystemResetWarning,0831.3,5.01,000.00,028.3,027.2,000.0,036.7,029.7,12.8,0000.0,0007.78,0002.16,0001.49
2023-11-05 04:42:00,SystemResetWarning,0831.3,5.00,000.00,028.3,027.3,000.0,036.7,029.7,12.8,0000.0,0007.43,0002.15,0001.50
2023-11-05 04:43:00,SystemResetWarning,0831.3,4.99,000.00,028.3,027.3,000.0,036.7,029.7,12.8,0000.0,0008.17,0002.17,0001.50
2023-11-05 04:44:00,SystemResetWarning,0831.3,5.00,000.00,028.3,027.3,000.0,036.7,029.7,12.9,0000.0,0008.30,0002.23,0001.51
2023-11-05 04:45:00,SystemResetWarning,0831.3,5.00,000.00,028.3,027.3,000.0,036.7,029.7,12.8,0000.0,0008.66,0002.31,0001.51
2023-11-05 04:46:00,SystemResetWarning,0831.3,4.99,000.00,028.3,027.3,000.0,036.7,029.7,12.9,0000.0,0008.64,0002.30,0001.52
2023-11-05 04:47:00,SystemResetWarning,0831.3,4.99,000.00,028.3,027.4,000.0,036.7,029.7,12.8,0000.0,0009.16,0002.29,0001.53
2023-11-05 04:48:00,SystemResetWarning,0831.4,5.01,000.00,028.3,027.4,000.0,036.7,029.8,12.8,0000.0,0008.53,0002.25,0001.53
2023-11-05 04:49:00,SystemResetWarning,0831.3,5.00,000.00,028.3,027.4,000.0,036.7,029.8,12.8,0000.0,0008.86,0002.32,0001.53
2023-11-05 04:50:00,SystemResetWarning,0831.3,5.00,000.00,028.3,027.4,000.0,036.7,029.7,12.8,0000.0,0009.15,0002.35,0001.54
2023-11-05 04:51:00,SystemResetWarning,0831.3,5.00,000.00,028.3,027.4,000.0,036.7,029.7,12.8,0000.0,0009.20,0002.38,0001.55
2023-11-05 04:52:00,SystemResetWarning,0831.3,4.99,000.00,028.3,027.4,000.0,036.7,029.7,12.8,0000.0,0009.22,0002.42,0001.56
2023-11-05 04:53:00,SystemResetWarning,0831.3,4.99,000.00,028.4,027.4,000.0,036.7,029.8,12.7,0000.0,0008.88,0002.38,0001.56
2023-11-05 04:54:00,SystemResetWarning,0831.4,4.99,000.00,028.3,027.4,000.0,036.7,029.7,12.7,0000.0,0007.67,0002.40,0001.58
2023-11-05 04:55:00,SystemResetWarning,0831.3,5.01,000.00,028.4,027.4,000.0,036.7,029.8,12.8,0000.0,0008.54,0002.38,0001.58
2023-11-05 04:56:00,SystemResetWarning,0831.3,5.01,000.00,028.4,027.4,000.0,036.7,029.8,12.8,0000.0,0008.81,0002.32,0001.58
2023-11-05 04:57:00,SystemResetWarning,0831.4,4.99,000.00,028.4,027.4,000.0,036.7,029.8,12.8,0000.0,0008.96,0002.36,0001.57
2023-11-05 04:58:00,SystemResetWarning,0831.3,4.99,000.00,028.4,027.4,000.0,036.7,029.8,12.8,0000.0,0008.51,0002.38,0001.57
2023-11-05 04:59:00,SystemResetWarning,0831.3,5.00,000.00,028.4,027.4,000.0,036.7,029.8,12.7,0000.0,0008.72,0002.42,0001.57
